Weather History for Sussex, NJ

Change the Weather History Date:

Tuesday, November 5, 2013

  Actual Average Record
Temperature  
Mean Temperature 40 °F -  
Max Temperature 53 °F 56 °F 79 °F (1990)
Min Temperature 26 °F 33 °F 20 °F (1983)
Degree Days  
Heating Degree Days 26    
Moisture  
Dew Point 31 °F    
Average Humidity 73    
Maximum Humidity 92    
Minimum Humidity 52    
Precipitation  
Precipitation 0.00 in - - ()
Sea Level Pressure  
Sea Level Pressure 30.59 in    
Wind  
Wind Speed 1 mph (South)    
Max Wind Speed 7 mph    
Max Gust Speed -    
Visibility 10 miles    
Events Rain    
Averages and records for this station are not official NWS values.
T = Trace of Precipitation, MM = Missing Value Source: NWS Daily Summary

Daily Weather History Graph

Daily Weather History Graph

Search for Another Location

Airport:

Trip Planner

Search our weather history database for the weather conditions in past years. The results will help you decide how hot, cold, wet, or windy it might be!

Date:

Astronomy

Nov. 05, 2013 Rise Set
Actual Time 6:34 AM EST 4:48 PM EST
Civil Twilight 6:05 AM EST 5:17 PM EST
Nautical Twilight 5:32 AM EST 5:50 PM EST
Astronomical Twilight 5:00 AM EST 6:22 PM EST
Moon 8:47 AM EST (11/5) 6:47 PM EST (11/5)
Length of Visible Light 11h 12m
Length of Day
10h 14m
Waxing Crescent, 6% of the Moon is Illuminated
Nov 5
Waxing Crescent
Nov 10
First Quarter
Nov 17
Full
Nov 25
Last Quarter
Dec 2
New

Hourly Weather History & Observations

Time (EST) Temp. Windchill Dew Point Humidity Pressure Visibility Wind Dir Wind Speed Gust Speed Precip Events Conditions
12:53 AM 27.0 °F - 24.1 °F 89% 30.66 in 10.0 mi Calm Calm - N/A   Clear
1:53 AM 28.0 °F - 23.0 °F 81% 30.63 in 10.0 mi Calm Calm - N/A   Clear
2:53 AM 27.0 °F - 21.9 °F 81% 30.63 in 10.0 mi Calm Calm - N/A   Clear
3:53 AM 28.0 °F - 25.0 °F 88% 30.65 in 10.0 mi Calm Calm - N/A   Clear
4:53 AM 27.0 °F - 21.9 °F 81% 30.65 in 10.0 mi Calm Calm - N/A   Clear
5:53 AM 26.1 °F - 23.0 °F 88% 30.65 in 10.0 mi Calm Calm - N/A   Partly Cloudy
6:53 AM 26.1 °F - 24.1 °F 92% 30.66 in 10.0 mi Calm Calm - N/A   Partly Cloudy
7:53 AM 30.0 °F - 25.0 °F 82% 30.65 in 10.0 mi Calm Calm - N/A   Partly Cloudy
8:53 AM 37.0 °F - 28.0 °F 70% 30.66 in 10.0 mi Calm Calm - 0.00 in Rain Light Rain
9:53 AM 42.1 °F 39.2 °F 28.0 °F 58% 30.64 in 10.0 mi Variable 4.6 mph - 0.00 in   Mostly Cloudy
10:53 AM 45.0 °F - 30.9 °F 58% 30.65 in 10.0 mi Calm Calm - 0.00 in Rain Light Rain
11:53 AM 48.0 °F - 33.1 °F 56% 30.62 in 10.0 mi Calm Calm - 0.00 in Rain Light Rain
12:53 PM 50.0 °F - 36.0 °F 59% 30.60 in 10.0 mi SE 3.5 mph - 0.00 in Rain Light Rain
1:53 PM 53.1 °F - 37.0 °F 55% 30.57 in 10.0 mi South 5.8 mph - 0.00 in Rain Light Rain
2:53 PM 53.1 °F - 36.0 °F 52% 30.55 in 10.0 mi SW 6.9 mph - 0.00 in   Clear
3:53 PM 52.0 °F - 35.1 °F 53% 30.55 in 10.0 mi SSW 5.8 mph - N/A   Clear
4:53 PM 50.0 °F - 35.1 °F 57% 30.53 in 10.0 mi Calm Calm - N/A   Clear
5:53 PM 48.9 °F - 37.0 °F 64% 30.55 in 10.0 mi Calm Calm - N/A   Mostly Cloudy
6:53 PM 46.9 °F - 37.9 °F 71% 30.56 in 10.0 mi Calm Calm - N/A   Scattered Clouds
7:53 PM 46.9 °F - 37.9 °F 71% 30.55 in 10.0 mi Calm Calm - N/A   Clear
8:53 PM 45.0 °F - 39.0 °F 80% 30.53 in 10.0 mi Calm Calm - N/A   Clear
9:53 PM 42.1 °F - 37.9 °F 85% 30.51 in 10.0 mi Calm Calm - N/A   Clear
10:53 PM 43.0 °F - 39.0 °F 86% 30.51 in 10.0 mi Calm Calm - N/A   Mostly Cloudy
11:53 PM 43.0 °F - 39.9 °F 89% 30.49 in 10.0 mi Calm Calm - N/A   Scattered Clouds